User: anonymous   Login
Location: Robledo de Chavela
(40.5014°N, 4.2377°W)
Time: 14:36:00
(UTC+00:00)
Language:

Cosmos 2297 Rocket - Orbit

View from above orbital plane
View from above orbital plane
View from above satellite
View from above satellite

Ground track
Ground track

The orbit data is extracted from the following two-line orbital elements,

1 23405U 94077B   24176.19625569 -.00000169  00000-0 -62230-4 0  9999
2 23405  70.9815 224.0542 0002354 336.2287  23.8726 14.15396518528275
Epoch (UTC): 24 June 2024 04:42:36
Eccentricity: 0.0002354
inclination: 70.9815°
perigee height: 839 km
apogee height: 842 km
right ascension of ascending node: 224.0542°
argument of perigee: 336.2287°
revolutions per day: 14.15396518
mean anomaly at epoch: 23.8726°
orbit number at epoch: 52827

The dashed part of the orbit path shows where the satellite is in the earth's shadow,  

DLR